Location: Asheville, NC
(35.6000°N, 82.5500°W)
Time: 08:26:50
(UTC-04:00)

nSIGHT-1 - Visible Passes

Search period start: 24 April 2018 00:00
Search period end: 04 May 2018 00:00
Orbit: 382 x 389 km, 51.6° (Epoch: 23 April)

Date Brightness Start Highest point End Pass type
(mag) Time Alt. Az. Time Alt. Az. Time Alt. Az.
28 Apr ? 05:21:35 10° SSE 05:23:00 13° SE 05:24:27 10° E visible
29 Apr ? 05:57:21 11° SW 06:00:22 68° SE 06:03:29 10° NE visible
30 Apr ? 05:01:29 23° SSE 05:02:06 25° SE 05:04:43 10° ENE visible
01 May ? 05:37:46 21° WSW 05:39:34 55° NW 05:42:39 10° NE visible
02 May ? 04:41:41 46° E 04:41:41 46° E 04:44:14 10° ENE visible
03 May ? 05:17:47 23° WNW 05:18:48 29° NW 05:21:35 10° NNE visible
